sat.trackr.live / text

‹ back to catalog

STARLINK-2377

NORAD 47797 · 2021-018L

PAYLOAD ACTIVE UNKNOWN

§ Identity

Operator
Country
US
Launch date
2021-03-11
Launch site
AFETR
Launch vehicle
Mass (kg)
RCS (m²)

Purposes: comms

External: N2YO · Heavens-Above · Gunter

§ Orbital elements

Epoch: 2026-09-04T04:37:54.958080Z

Period
94.01 min
Inclination
53.1596°
Eccentricity
0.0001382
Mean motion
15.31718651 rev/d
Perigee alt
469.7 km
Apogee alt
471.6 km
Semi-major
6,848.8 km
B*
1.3948e-4
RAAN
144.6991°
Arg perigee
86.1954°
Mean anomaly
273.9205°
Rev number
30,389

§ Raw data

STARLINK-23771 47797U 21018L   26247.19299720  .00003968  00000+0  13948-3 0  99992 47797  53.1596 144.6991 0001382  86.1954 273.9205 15.31718651303895

JSON: /api/v1/satellites/47797 · /tle

For live sub-satellite position, see the globe view (requires WebGL).

§ Visibility from observer

Set your observer location to see the next 7 days of passes ≥ 10°. The values pass through the URL so the page stays shareable.

No JS? Fill the form by hand. The geolocation button needs JavaScript.